Location: Unspecified
(0.0000°N, 0.0000°E)
Time: 20:03:41
(UTC+00:00)

ISS - Pass Details

Date: 17 January 2018
Orbit: 402 x 407 km, 51.6° (Epoch: 17 January)

Event Time Altitude Azimuth Distance (km) Brightness Sun altitude
Rises 19:05:30 0° 208° (SSW) 2,310 0.8 -12.9°
Reaches altitude 10° 19:07:37 10° 202° (SSW) 1,449 -0.4 -13.4°
Maximum altitude 19:10:46 50° 126° (SE) 516 -3.6 -14.1°
Enters shadow 19:12:01 30° 67° (ENE) 740 -3.1 -14.4°
